Regional Weather Roundup
Issued by NWS Kansas City/Pleasant Hill, MO

Home | Current Version | Previous Version | Graphics & Text | Print | Product List | Glossary Off
Versions: 1 2 3 4 5 6 7 8 9 10 11 12 13 14 15 16 17 18 19 20 21 22 23 24 25 26 27 28 29 30 31 32 33 34 35 36 37 38 39 40 41 42 43 44 45 46 47 48 49 50

210
ASUS43 KEAX 241010
RWREAX

WEATHER ROUNDUP FOR EASTERN KANSAS AND NORTHWEST MISSOURI
NATIONAL WEATHER SERVICE KANSAS CITY/PLEASANT HILL MO
500 AM CDT THU MAY 24 2018

KSZ040-057-103>105-MOZ028-029-037-043-241100-
...KANSAS CITY METROPOLITAN AREA...

CITY           SKY/WX    TMP DP  RH WIND       PRES   REMARKS
K.C. INTL      CLOUDY    66  63  90 S7        30.09S
K.C. DOWNTOWN  PTCLDY    70  62  76 S6        30.09R
LEES SUMMIT    PTCLDY    66  64  93 SE6       30.11R
OLATHE - IXD   CLOUDY    67  65  93 S7        30.10R
OLATHE - OJC   CLOUDY    64  64 100 SE8       30.10R
LAWRENCE       CLOUDY    66  66 100 SE5       30.08R

$$

MOZ001>008-011>017-020>025-030>033-038>040-044>046-053-054-241100-
...NORTHERN AND CENTRAL MISSOURI...

CITY           SKY/WX    TMP DP  RH WIND       PRES   REMARKS
ST. JOSEPH     CLOUDY    66  64  93 S5        30.09R
MOSBY          CLOUDY    64  63  94 CALM      30.10S
WARRENSBURG    MOCLDY    64  63  94 S3        30.11R
WHITEMAN AFB   PTCLDY    64  64  98 S5        30.07R
CLINTON        CLEAR     64  64 100 CALM      30.11S FOG
SEDALIA        CLEAR     67  67 100 SE7       30.12R
WARSAW         NOT AVBL
CHILLICOTHE      N/A     66  64  93 CALM      30.12R
KIRKSVILLE     CLEAR    N/A N/A N/A S5        30.13R

$$

MOZ041-047>049-056>058-063>065-088>090-097-241100-
...EASTERN AND SOUTHERN MISSOURI...

CITY           SKY/WX    TMP DP  RH WIND       PRES   REMARKS
ST. LOUIS INTL PTCLDY    67  63  87 E5        30.13R
SPIRIT OF STL  PTCLDY    64  63  96 CALM      30.11R
COLUMBIA       CLEAR     67  65  93 CALM      30.13R
JEFFERSON CITY CLEAR     67  65  93 N3        30.12R
ROLLA          PTCLDY    64  62  93 CALM      30.13S
OSAGE BEACH    CLEAR     63  63 100 CALM      30.14R
SPRINGFIELD    CLOUDY    68  63  84 S3        30.11R
BRANSON        PTCLDY    64  64 100 CALM      30.14R
JOPLIN         CLOUDY    67  64  90 SE5       30.09F
WEST PLAINS    MOCLDY    66  64  93 CALM      30.15R

$$

IAZ060-094-KSZ022-034>040-054-083-096-NEZ052-066-093-241100-
...KANSAS...SOUTHEAST NEBRASKA AND IOWA...

CITY           SKY/WX    TMP DP  RH WIND       PRES   REMARKS
TOPEKA         CLOUDY    70  69  97 SE3       30.06S
MANHATTAN      CLOUDY    68  65  90 S5        30.03F
EMPORIA        CLOUDY    67  65  93 SE6       30.05F
CHANUTE        CLOUDY    67  67 100 SE6       30.08R
WICHITA        CLOUDY    69  62  78 SE9       30.01S
OMAHA          PTCLDY    71  64  78 S10       30.04S
LINCOLN        MOCLDY    69  64  84 S9        30.03S
FALLS CITY     PTCLDY    67  64  90 SE7       30.06R
LAMONI         CLOUDY    68  64  87 S5        30.11R
DES MOINES     CLOUDY    69  64  84 SE6       30.09R

$$





USA.gov is the U.S. government's official web portal to all federal, state and local government web resources and services.